Starlink 2748

operational
NORAD ID: 48694 Int'l Des: 2021-044 Owner: SPXS Country: US Constellation: starlink
LEOCIRCULAR

Starlink 2748について

説明を読み込み中...

リアルタイム位置

3D地球を読み込み中...

次回通過

高度履歴

Altitude vs Time

uPlot chart will show altitude changes over time

軌道要素

1 48694U 21044BJ 26061.16225487 .00006149 00000-0 21954-3 0 9996
2 48694 53.1591 113.4730 0001391 88.4687 271.6473 15.30202370263162
Epoch: Mar 2, 2026 • Age: 27 hours

現在のステータス

高度 493.1 km
速度 7.62 km/s
衛星直下点 -49.39°S, 144.45°E
打ち上げ日 May 26, 2021
運用期間 4.7 years
タイプ internet

技術仕様

分類 Payload
質量 260.00 kg
乾燥質量 248.00 kg
総質量 260.00 kg
長さ 0.20 m
直径 2.80 m
スパン 9.00 m
形状 Box + pan
製造者 SPXS
バスタイプ Starlink
フェーズステータス In Orbit
所有者/国 SPXS/US

大規模コンステレーション

Loading constellations...